Showing default

VANGUARD 3, 20

Orbit data source: Space-Track

VANGUARD 3, 20 is a payload satellite owned by GSFC (US) in LEO that was launched on Fri, 18 Sep 1959 UTC via a VANGUARD launch vehicle from the Air Force Eastern Test Range (AFETR). Payload-class satellites include a variety of spacecraft equipped with specific instruments for various scientific and technological missions. These include communications satellites like Starlink; space stations such as the ISS; scientific satellites like the Hubble; Earth observation satellites from companies like Planet Labs, Umbra, and HawkEye 360; GPS; miniature CubeSats for education and research; and military/defense satellites.

Loading next visibility...
Identifier
20, 1959-007A
Orbit
LEO
Country
Flag of USUS
Related business
Manufacturer
NRL
Mission
Civil Science
Bus & Motor
NRL 20", Unknown motor
Mass
47 kg wet, 23 kg dry
Launch date (UTC)
1959-09-18 (66 years ago)
Launch vehicle
VANGUARD
Launch site
Air Force Eastern Test Range (AFETR)
Object type
Payload
Rocket body
Debris
Shape & HBR
Sphere + Cyl, 1.3 m
Radar Cross Section
1.104 m², Medium (>0.1 m² and < 1m²)

Expand to show TLE details & history
Last TLE update: 1 day ago

TLE from 1 day ago
0 VANGUARD 3
1 00020U 59007A   25261.07963572  .00002310  00000-0  94620-3 0  9998
2 00020  33.3388 166.2417 1639797  35.3782 334.5283 11.61015826452964
Epoch: 2025-09-18T01:54Z
TLE epoch observation values (Epoch: 2025-09-18T01:54:40.526Z)
Latitude
0.00001°
Longitude
140.32648°
Altitude
691.69 km
Speed
8.026 km/s
True Right ascension
11h 04m 58s
True Declination
0° 00' 00"
Sunlit
Object was in daylight at epoch
Visualization orbit readout
Latitude
Unknown
Longitude
Unknown
Altitude
Unknown
Speed
Unknown
Apparent Right ascension
Unknown
Apparent Declination
Unknown
Sunlit
N/A
Visualization observer readout
Local Sidereal Time
20:08:53
Azimuth
Unknown
Elevation
Unknown
Doppler factor
Unknown
Orbital elements
Apogee altitude
3,214.75 km
Perigee altitude
511.887 km
Semi-major axis
8,241.456 km
Eccentricity
0.16398
Inclination
33.3388°
RAAN
166.2417°
Arg. of periapsis
35.3782°
True anomaly
324.68262°
Mean anomaly
334.5283°
Eccentric anomaly
329.80263°
Mean motion
2.90093 °/min
Orbital period
124.1 mins
BSTAR
0.0009462
Loading maneuver chart data...
Computing Atmospheric mass density...
Loading historical data...
Loading historical data...
Loading historical data...
Loading historical data...
Loading historical data...
Loading historical data...
Loading historical data...
Other satellites on launch #7 in the year 1959 (1959-09-18 UTC)

Documentation

Showing up to 5 results
|